Location: Unspecified
(50.7693°N, 0.0000°E)
Time: 00:35:20
(UTC+00:00)

Transit 2A - Pass Details

Date: 04 July 2019
Orbit: 594 x 964 km, 66.7° (Epoch: 20 July)

Event Time Altitude Azimuth Distance (km) Brightness Sun altitude
Rises 02:16:16 0° 305° (NW) 3,582 9.5 -10.8°
Reaches altitude 10° 02:19:54 10° 325° (NW) 2,583 9.0 -10.5°
Maximum altitude 02:23:40 17° 4° (N) 2,068 9.2 -10.2°
Drops below altitude 10° 02:27:14 10° 43° (NE) 2,433 10.1 -9.9°
Sets 02:30:31 0° 64° (ENE) 3,285 10.4 -9.6°
